KF4PPJ Weather Reports


time (UTC)temp
C
wind
direction
speed
KPH
gust
KPH
rain 1hr
cm
rain 24hr
cm
rain mn
cm
humidity
%
barometer
mb
20260905113944 10 153 0.0 0.0 0.00 0.00 0.00 95 1020.0
20260905113440 10 152 0.0 0.0 0.00 0.00 0.00 95 1019.9
20260905112935 10 150 0.0 0.0 0.00 0.00 0.00 95 1019.9
20260905112430 10 149 0.0 0.0 0.00 0.00 0.00 95 1019.8
20260905111925 10 151 0.0 0.0 0.00 0.00 0.00 95 1019.8
20260905111420 10 152 0.0 0.0 0.00 0.00 0.00 95 1019.9
20260905110920 10 152 0.0 0.0 0.00 0.00 0.00 95 1019.9
20260905110413 10 147 0.0 0.0 0.00 0.00 0.00 95 1019.7
20260905105908 10 154 0.0 0.0 0.00 0.00 0.00 95 1019.7
20260905105408 10 140 0.0 0.0 0.00 0.00 0.00 95 1019.7
20260905104903 10 132 0.0 0.0 0.00 0.00 0.00 95 1019.8
20260905104358 10 150 0.0 0.0 0.00 0.00 0.00 95 1019.8
20260905103853 10 151 0.0 0.0 0.00 0.00 0.00 95 1019.7
20260905103349 10 141 0.0 0.0 0.00 0.00 0.00 95 1019.6
20260905102844 10 142 0.0 0.0 0.00 0.00 0.00 95 1019.6
20260905102341 10 156 0.0 0.0 0.00 0.00 0.00 95 1019.6
20260905101840 10 149 0.0 0.0 0.00 0.00 0.00 95 1019.5
20260905101338 10 137 0.0 0.0 0.00 0.00 0.00 95 1019.7
20260905100833 10 141 0.0 4.8 0.00 0.00 0.00 95 1019.6
20260905100329 11 136 1.6 3.2 0.00 0.00 0.00 95 1019.7
20260905095823 11 138 0.0 0.0 0.00 0.00 0.00 95 1019.5
20260905095322 10 138 1.6 3.2 0.00 0.00 0.00 95 1019.5
20260905094817 10 127 0.0 0.0 0.00 0.00 0.00 95 1019.4
20260905094313 10 152 0.0 0.0 0.00 0.00 0.00 95 1019.4
20260905093812 10 152 0.0 0.0 0.00 0.00 0.00 94 1019.7
20260905093308 10 151 0.0 0.0 0.00 0.00 0.00 94 1019.5
20260905092758 11 151 0.0 0.0 0.00 0.00 0.00 94 1019.4
20260905092253 11 150 0.0 0.0 0.00 0.00 0.00 94 1019.3
20260905091752 11 147 0.0 0.0 0.00 0.00 0.00 94 1019.5
20260905091247 11 137 0.0 0.0 0.00 0.00 0.00 94 1019.4
20260905090741 11 149 0.0 0.0 0.00 0.00 0.00 94 1019.5
20260905090236 11 149 0.0 0.0 0.00 0.00 0.00 94 1019.3
20260905085735 11 138 0.0 0.0 0.00 0.00 0.00 94 1019.5
20260905085230 11 146 0.0 0.0 0.00 0.00 0.00 94 1019.2
20260905084730 11 145 0.0 0.0 0.00 0.00 0.00 94 1019.3
20260905084230 11 146 0.0 0.0 0.00 0.00 0.00 94 1019.1
20260905083725 11 146 0.0 0.0 0.00 0.00 0.00 94 1019.2
20260905083221 11 152 0.0 0.0 0.00 0.00 0.00 94 1019.3
20260905082717 11 148 0.0 0.0 0.00 0.00 0.00 93 1019.4
20260905082212 11 141 0.0 0.0 0.00 0.00 0.00 93 1019.1
20260905081712 11 147 0.0 0.0 0.00 0.00 0.00 93 1019.2
20260905081207 11 146 0.0 0.0 0.00 0.00 0.00 93 1019.0
20260905080707 11 146 0.0 0.0 0.00 0.00 0.00 93 1019.2
20260905080201 11 146 0.0 0.0 0.00 0.00 0.00 93 1019.3
20260905075701 11 145 0.0 0.0 0.00 0.00 0.00 93 1019.3
20260905075200 11 147 0.0 0.0 0.00 0.00 0.00 92 1019.2
20260905074659 11 146 0.0 0.0 0.00 0.00 0.00 92 1019.2
20260905074154 11 151 0.0 0.0 0.00 0.00 0.00 92 1019.4
20260905073650 11 147 0.0 0.0 0.00 0.00 0.00 92 1019.4
20260905073146 11 140 0.0 0.0 0.00 0.00 0.00 92 1019.2
20260905072644 11 147 0.0 0.0 0.00 0.00 0.00 91 1019.1
20260905072140 11 151 0.0 0.0 0.00 0.00 0.00 91 1019.3
20260905071637 11 150 0.0 0.0 0.00 0.00 0.00 91 1019.3
20260905071132 12 149 0.0 0.0 0.00 0.00 0.00 91 1019.0
20260905070627 12 145 0.0 0.0 0.00 0.00 0.00 90 1018.8
20260905070123 12 152 0.0 0.0 0.00 0.00 0.00 90 1019.2
20260905065621 12 150 0.0 0.0 0.00 0.03 0.03 90 1019.0
20260905065116 12 147 0.0 0.0 0.00 0.03 0.03 90 1018.9
20260905064611 12 147 0.0 0.0 0.00 0.03 0.03 90 1019.0
20260905064106 12 147 0.0 0.0 0.00 0.03 0.03 90 1019.0
20260905063605 12 151 0.0 0.0 0.00 0.03 0.03 89 1018.9
20260905063101 12 149 0.0 0.0 0.00 0.03 0.03 89 1018.9
20260905062557 12 149 0.0 0.0 0.00 0.03 0.03 88 1018.7
20260905062050 12 160 0.0 0.0 0.00 0.03 0.03 88 1018.8
20260905061545 12 146 0.0 0.0 0.00 0.03 0.03 87 1018.5
20260905061044 12 146 0.0 0.0 0.00 0.03 0.03 87 1018.7
20260905060541 13 142 0.0 0.0 0.00 0.03 0.03 87 1018.4
20260905060036 13 145 0.0 0.0 0.00 0.03 0.03 86 1018.6
20260905055535 13 142 0.0 0.0 0.00 0.03 0.03 85 1018.3
20260905055030 13 139 0.0 0.0 0.00 0.03 0.03 85 1018.4
20260905054526 13 142 0.0 0.0 0.00 0.03 0.03 84 1018.4
20260905054021 13 139 0.0 0.0 0.00 0.03 0.03 84 1018.4
20260905053515 13 131 0.0 0.0 0.00 0.03 0.03 84 1018.4
20260905053011 13 124 0.0 0.0 0.00 0.03 0.03 84 1018.4
20260905052510 13 132 0.0 0.0 0.00 0.03 0.03 84 1018.4
20260905052004 13 120 0.0 0.0 0.00 0.03 0.03 85 1018.6
20260905051459 13 150 0.0 0.0 0.00 0.03 0.03 85 1018.5
20260905050957 13 147 0.0 0.0 0.00 0.03 0.03 84 1018.5
20260905050452 13 158 0.0 0.0 0.00 0.03 0.03 84 1018.5
20260905045948 13 153 0.0 0.0 0.00 0.03 0.03 83 1018.5
20260905045443 14 143 0.0 0.0 0.00 0.03 0.03 83 1018.6
20260905044938 14 133 0.0 0.0 0.00 0.03 0.03 83 1018.3
20260905044433 13 134 0.0 0.0 0.00 0.03 0.03 83 1018.5
20260905043932 13 136 0.0 0.0 0.00 0.03 0.03 82 1018.6
20260905043431 14 151 0.0 0.0 0.00 0.03 0.03 82 1018.7
20260905042926 14 151 0.0 0.0 0.00 0.03 0.03 82 1018.7
20260905042421 14 151 0.0 0.0 0.00 0.03 0.03 82 1018.7
20260905041916 14 152 0.0 0.0 0.00 0.03 0.03 81 1018.6
20260905041412 14 150 0.0 0.0 0.00 0.03 0.03 81 1018.4
20260905040907 14 149 0.0 0.0 0.00 0.03 0.03 81 1018.4
20260905040406 14 134 0.0 0.0 0.00 0.03 0.03 80 1018.4
20260905035906 14 137 0.0 0.0 0.00 0.03 0.03 80 1018.5
20260905035401 14 145 0.0 0.0 0.00 0.03 0.03 80 1018.5
20260905034858 15 143 0.0 0.0 0.00 0.03 0.03 79 1018.5
20260905034353 15 146 0.0 0.0 0.00 0.03 0.03 78 1018.3
20260905033851 15 120 0.0 0.0 0.00 0.03 0.03 77 1018.2
20260905033347 15 130 0.0 0.0 0.00 0.03 0.03 77 1018.5
20260905032846 15 125 0.0 0.0 0.00 0.03 0.03 78 1018.2
20260905032342 15 132 0.0 0.0 0.00 0.03 0.03 77 1018.2
20260905031837 15 123 0.0 0.0 0.00 0.03 0.03 76 1017.8
20260905031333 15 138 0.0 0.0 0.00 0.03 0.03 75 1018.1
20260905030828 15 143 0.0 0.0 0.00 0.03 0.03 75 1018.1
20260905030324 15 149 0.0 0.0 0.00 0.03 0.03 75 1018.1
20260905025823 15 146 0.0 0.0 0.00 0.03 0.03 74 1017.9
20260905025318 15 140 0.0 0.0 0.00 0.03 0.03 74 1017.9
20260905024814 15 149 0.0 0.0 0.00 0.03 0.03 74 1018.1
20260905024309 16 143 0.0 0.0 0.00 0.03 0.03 72 1017.9
20260905023805 16 145 0.0 0.0 0.00 0.03 0.03 73 1017.7
20260905023300 16 149 0.0 0.0 0.00 0.03 0.03 69 1017.8
20260905022759 16 136 0.0 0.0 0.00 0.03 0.03 69 1017.8
20260905022254 16 126 0.0 0.0 0.00 0.03 0.03 67 1017.8
20260905021754 17 140 0.0 0.0 0.00 0.03 0.03 66 1017.8
20260905021250 17 132 0.0 0.0 0.00 0.03 0.03 65 1017.9
20260905020749 17 133 0.0 0.0 0.00 0.03 0.03 65 1018.0
20260905020245 17 142 3.2 4.8 0.00 0.03 0.03 65 1017.8
20260905015743 18 128 3.2 8.0 0.00 0.03 0.03 61 1018.0
20260905015238 18 161 0.0 0.0 0.00 0.03 0.03 62 1017.9
20260905014737 18 164 0.0 1.6 0.00 0.03 0.03 60 1017.9
20260905014233 18 150 1.6 4.8 0.00 0.03 0.03 60 1017.9
20260905013728 18 119 1.6 3.2 0.00 0.03 0.03 61 1017.7
20260905013224 18 147 0.0 0.0 0.00 0.03 0.03 58 1017.7
20260905012719 19 135 0.0 1.6 0.00 0.03 0.03 56 1017.5
20260905012215 19 153 0.0 3.2 0.00 0.03 0.03 55 1017.4
20260905011712 20 149 0.0 0.0 0.00 0.03 0.03 57 1017.3
20260905011208 20 147 0.0 1.6 0.00 0.03 0.03 57 1017.3
20260905010707 20 158 1.6 4.8 0.00 0.03 0.03 52 1017.3
20260905010203 20 160 1.6 4.8 0.00 0.03 0.03 53 1017.0
20260905005659 21 156 4.8 9.7 0.00 0.03 0.03 52 1017.1
20260905005155 21 173 1.6 3.2 0.00 0.03 0.03 52 1016.9
20260905004649 21 97 4.8 8.0 0.00 0.03 0.03 52 1017.0
20260905004144 21 155 0.0 0.0 0.00 0.03 0.03 52 1016.9
20260905003639 21 96 3.2 11.3 0.00 0.03 0.03 52 1017.1
20260905003135 21 120 0.0 4.8 0.00 0.03 0.03 52 1017.0
20260905002631 21 198 4.8 9.7 0.00 0.03 0.03 52 1017.1
20260905002125 21 105 1.6 1.6 0.00 0.03 0.03 56 1016.8
20260905001621 21 138 4.8 9.7 0.00 0.03 0.03 55 1016.9
20260905001120 21 163 1.6 11.3 0.00 0.03 0.03 52 1016.7
20260905000616 21 149 4.8 4.8 0.00 0.03 0.03 48 1016.9
20260905000112 21 173 0.0 3.2 0.00 0.03 0.03 46 1016.7
20260904235611 21 190 3.2 3.2 0.00 0.03 0.03 47 1016.5
20260904235111 21 174 1.6 3.2 0.00 0.03 0.03 44 1016.7
20260904234606 21 174 3.2 4.8 0.00 0.03 0.03 47 1016.7
20260904234102 21 182 3.2 8.0 0.00 0.03 0.03 46 1016.7
20260904233602 22 195 3.2 9.7 0.00 0.03 0.03 45 1016.8
20260904233058 22 199 3.2 3.2 0.00 0.03 0.03 43 1016.8
20260904232554 22 113 0.0 4.8 0.00 0.03 0.03 44 1016.8
20260904232051 22 163 0.0 8.0 0.00 0.03 0.03 45 1016.7
20260904231546 22 116 4.8 4.8 0.00 0.03 0.03 46 1016.6
20260904231041 22 226 4.8 4.8 0.00 0.03 0.03 49 1016.5
20260904230540 21 223 1.6 4.8 0.00 0.03 0.03 51 1016.6
20260904230036 21 187 1.6 8.0 0.00 0.03 0.03 50 1016.6
20260904225533 21 201 1.6 3.2 0.00 0.03 0.03 51 1016.6
20260904225033 21 241 8.0 11.3 0.00 0.03 0.03 52 1016.5
20260904224529 21 207 3.2 11.3 0.00 0.03 0.03 51 1016.4
20260904224028 21 208 4.8 11.3 0.00 0.03 0.03 49 1016.5
20260904223527 22 104 4.8 4.8 0.00 0.03 0.03 51 1016.5
20260904223023 21 188 4.8 8.0 0.00 0.03 0.03 51 1016.3
20260904222518 21 209 3.2 8.0 0.00 0.03 0.03 52 1016.4
20260904222014 21 175 4.8 8.0 0.00 0.03 0.03 52 1016.3
20260904221509 22 289 4.8 8.0 0.00 0.03 0.03 53 1016.5
20260904221009 21 182 3.2 8.0 0.00 0.03 0.03 53 1016.3
20260904220508 21 158 3.2 4.8 0.00 0.03 0.03 53 1016.4
20260904220004 21 173 1.6 4.8 0.00 0.03 0.03 53 1016.3
20260904215459 21 266 6.4 8.0 0.00 0.03 0.03 54 1016.2
20260904214954 21 47 3.2 8.0 0.00 0.03 0.03 55 1016.3
20260904214450 21 55 3.2 9.7 0.00 0.03 0.03 56 1016.3
20260904213945 20 69 1.6 4.8 0.00 0.03 0.03 58 1016.2
20260904213438 20 198 4.8 11.3 0.00 0.03 0.03 58 1016.2
20260904212935 20 86 1.6 9.7 0.00 0.03 0.03 59 1016.1
20260904212434 20 168 4.8 9.7 0.00 0.03 0.03 59 1016.3
20260904211930 20 218 4.8 9.7 0.00 0.03 0.03 60 1016.1
20260904211429 20 249 4.8 8.0 0.00 0.03 0.03 61 1016.0
20260904210925 20 227 6.4 11.3 0.00 0.03 0.03 61 1016.1
20260904210424 20 135 3.2 12.9 0.00 0.03 0.03 61 1016.2
20260904205920 20 254 4.8 8.0 0.00 0.03 0.03 61 1016.2
20260904205415 20 227 6.4 12.9 0.00 0.03 0.03 61 1016.2
20260904204912 19 211 6.4 9.7 0.00 0.03 0.03 65 1016.3
20260904204408 19 223 6.4 9.7 0.00 0.03 0.03 64 1016.3
20260904203904 19 227 6.4 11.3 0.00 0.03 0.03 63 1016.1
20260904203400 19 188 4.8 8.0 0.00 0.03 0.03 65 1016.2
20260904202856 18 186 3.2 8.0 0.00 0.03 0.03 66 1016.2
20260904202352 19 195 8.0 12.9 0.00 0.03 0.03 63 1016.3
20260904201847 19 215 4.8 9.7 0.00 0.03 0.03 63 1016.2
20260904201342 18 160 0.0 9.7 0.00 0.03 0.03 66 1016.4
20260904200837 18 200 4.8 8.0 0.00 0.03 0.03 67 1016.3
20260904200335 18 213 4.8 8.0 0.00 0.03 0.03 68 1016.5
20260904195830 17 206 4.8 8.0 0.00 0.03 0.03 68 1016.5
20260904195329 18 215 4.8 4.8 0.00 0.03 0.03 69 1016.5
20260904194829 18 165 4.8 9.7 0.00 0.03 0.03 69 1016.4
20260904194328 18 210 4.8 11.3 0.00 0.03 0.03 68 1016.3
20260904193823 18 215 3.2 11.3 0.00 0.03 0.03 69 1016.4
20260904193319 17 224 4.8 9.7 0.00 0.03 0.03 71 1016.3
20260904192814 17 230 6.4 9.7 0.00 0.03 0.03 71 1016.3
20260904192309 17 169 9.7 12.9 0.00 0.03 0.03 72 1016.3
20260904191806 17 224 8.0 9.7 0.00 0.03 0.03 72 1016.5
20260904191302 17 178 6.4 9.7 0.00 0.03 0.03 74 1016.3
20260904190758 17 250 8.0 9.7 0.00 0.03 0.03 73 1016.3
20260904190254 17 225 8.0 16.1 0.00 0.03 0.03 73 1016.7
20260904185750 17 200 3.2 8.0 0.00 0.03 0.03 74 1016.6
20260904185245 17 180 6.4 11.3 0.00 0.03 0.03 73 1016.4
20260904184743 17 162 1.6 8.0 0.00 0.03 0.03 74 1016.6
20260904184240 17 178 6.4 11.3 0.00 0.03 0.03 74 1016.4
20260904183735 17 188 4.8 16.1 0.00 0.03 0.03 73 1016.5
20260904183230 16 136 6.4 11.3 0.00 0.03 0.03 75 1016.5
20260904182725 16 147 3.2 11.3 0.00 0.03 0.03 77 1016.5
20260904182220 16 196 4.8 11.3 0.00 0.03 0.03 77 1016.6
20260904181716 16 215 8.0 8.0 0.00 0.03 0.03 76 1016.6
20260904181216 16 199 11.3 16.1 0.00 0.03 0.03 77 1016.7
20260904180712 17 158 6.4 9.7 0.00 0.03 0.03 74 1016.6
20260904180207 17 186 4.8 12.9 0.00 0.03 0.03 77 1016.6
20260904175706 17 88 1.6 8.0 0.00 0.03 0.03 77 1016.7
20260904175205 17 160 4.8 8.0 0.00 0.03 0.03 78 1016.5
20260904174705 16 208 4.8 8.0 0.00 0.03 0.03 79 1016.5
20260904174201 16 269 8.0 11.3 0.00 0.03 0.03 80 1016.5
20260904173656 16 225 4.8 8.0 0.00 0.03 0.03 82 1016.6
20260904173151 16 169 3.2 4.8 0.00 0.03 0.03 82 1016.7
20260904172648 16 158 0.0 4.8 0.00 0.03 0.03 83 1016.4
20260904172147 15 158 0.0 3.2 0.00 0.03 0.03 86 1016.6
20260904171642 15 203 4.8 4.8 0.00 0.03 0.03 85 1016.6
20260904171137 15 195 6.4 8.0 0.00 0.03 0.03 85 1016.4
20260904170633 15 157 1.6 8.0 0.00 0.03 0.03 86 1016.6
20260904170129 15 158 1.6 4.8 0.00 0.03 0.03 88 1016.8
20260904165628 15 147 3.2 4.8 0.00 0.03 0.03 89 1016.5
20260904165127 15 208 3.2 3.2 0.00 0.03 0.03 88 1016.7
20260904164627 15 160 1.6 3.2 0.00 0.03 0.03 89 1016.5
20260904164123 15 188 1.6 4.8 0.00 0.03 0.03 89 1016.6
20260904163619 15 169 1.6 8.0 0.00 0.03 0.03 91 1016.4
20260904163114 15 176 3.2 3.2 0.00 0.03 0.03 91 1016.5
20260904162613 15 162 3.2 4.8 0.00 0.03 0.03 93 1016.4
20260904162109 15 168 1.6 3.2 0.00 0.03 0.03 94 1016.2
20260904161604 14 175 0.0 0.0 0.00 0.03 0.03 96 1016.4
20260904161059 13 159 0.0 0.0 0.00 0.03 0.03 97 1016.3
20260904160554 13 166 0.0 0.0 0.00 0.03 0.03 97 1016.2
20260904160050 13 153 0.0 0.0 0.00 0.03 0.03 97 1016.4
20260904155549 13 136 0.0 1.6 0.00 0.03 0.03 97 1016.3
20260904155044 13 113 0.0 0.0 0.00 0.03 0.03 97 1016.2
20260904154537 13 135 0.0 0.0 0.00 0.03 0.03 98 1016.1
20260904154032 13 133 0.0 0.0 0.00 0.03 0.03 97 1016.3
20260904153532 13 158 0.0 0.0 0.00 0.03 0.03 97 1016.3
20260904153029 13 156 0.0 0.0 0.00 0.03 0.03 98 1016.2
20260904152524 13 154 0.0 0.0 0.00 0.03 0.03 98 1016.0
20260904152019 13 153 0.0 0.0 0.00 0.03 0.03 98 1016.0
20260904151514 12 156 0.0 0.0 0.00 0.03 0.03 98 1016.0
20260904151008 12 154 0.0 0.0 0.00 0.03 0.03 98 1015.9
20260904150503 12 157 0.0 0.0 0.00 0.03 0.03 98 1015.7
20260904150002 12 154 0.0 0.0 0.00 0.03 0.03 98 1015.6
20260904145457 12 155 0.0 0.0 0.00 0.03 0.03 98 1015.9
20260904144953 12 154 0.0 0.0 0.00 0.03 0.03 98 1015.7
20260904144448 12 154 0.0 0.0 0.00 0.03 0.03 98 1015.7
20260904143944 12 154 0.0 0.0 0.00 0.03 0.03 98 1015.5
20260904143440 12 153 0.0 0.0 0.00 0.03 0.03 98 1015.6
20260904142937 12 152 0.0 0.0 0.00 0.03 0.03 98 1015.6
20260904142433 11 146 0.0 0.0 0.00 0.03 0.03 98 1015.7
20260904141927 11 148 0.0 0.0 0.00 0.03 0.03 98 1015.7
20260904141422 11 147 0.0 0.0 0.00 0.03 0.03 98 1015.6
20260904140919 11 148 0.0 0.0 0.00 0.03 0.03 98 1015.5
20260904140419 11 143 0.0 0.0 0.00 0.03 0.03 98 1015.5
20260904135918 11 151 0.0 0.0 0.00 0.03 0.03 98 1015.4
20260904135418 11 153 0.0 0.0 0.00 0.03 0.03 98 1015.2
20260904134914 11 151 0.0 0.0 0.18 0.03 0.03 98 1015.1
20260904134413 11 154 0.0 0.0 0.00 0.00 0.00 97 1015.1
20260904133909 11 151 0.0 0.0 0.00 0.00 0.00 97 1015.2
20260904133403 11 152 0.0 0.0 0.00 0.00 0.00 97 1014.9
20260904132858 11 152 0.0 0.0 0.00 0.00 0.00 97 1014.9
20260904132359 11 152 0.0 0.0 0.00 0.00 0.00 97 1015.0
20260904131858 11 146 0.0 0.0 0.00 0.00 0.00 97 1015.1
20260904131354 11 151 0.0 0.0 0.00 0.00 0.00 97 1015.1
20260904130849 11 152 0.0 0.0 0.00 0.00 0.00 97 1015.0
20260904130348 11 152 0.0 0.0 0.00 0.00 0.00 97 1014.9
20260904125843 11 152 0.0 0.0 0.00 0.00 0.00 97 1014.9
20260904125340 11 152 0.0 0.0 0.00 0.00 0.00 97 1014.9
20260904124838 11 153 0.0 0.0 0.00 0.00 0.00 97 1014.8
20260904124335 11 152 0.0 0.0 0.00 0.00 0.00 97 1014.9
20260904123831 11 149 0.0 0.0 0.00 0.00 0.00 97 1014.6
20260904123326 11 154 0.0 0.0 0.00 0.00 0.00 97 1014.7
20260904122821 11 151 0.0 0.0 0.00 0.00 0.00 97 1014.8
20260904122320 11 153 0.0 0.0 0.00 0.00 0.00 97 1014.6
20260904121815 11 155 0.0 0.0 0.00 0.00 0.00 97 1014.5
20260904121312 11 157 0.0 0.0 0.00 0.00 0.00 97 1014.4
20260904120808 11 155 0.0 0.0 0.00 0.00 0.00 97 1014.5
20260904120258 11 152 0.0 0.0 0.00 0.00 0.00 97 1014.4
20260904115753 11 142 0.0 0.0 0.00 0.00 0.00 97 1014.7
20260904115248 11 156 0.0 0.0 0.00 0.00 0.00 97 1014.2
20260904114742 11 154 0.0 0.0 0.00 0.00 0.00 97 1014.4
20260904114242 11 157 0.0 0.0 0.00 0.00 0.00 97 1014.4